THOR AGENA B DEB, 1951

Orbit data source: Space-Track

THOR AGENA B DEB, 1951 is space debris in LEO originally from a launch on Mon, 29 Nov 1965 UTC launched from the Air Force Western Test Range (AFWTR). Debris objects in space refer to the collection of defunct objects orbiting the Earth. Examples of debris include non-operational satellites, rocket bodies, and fragments generated from explosions, collisions, or faulty payload assembly.

Loading next visibility...
Identifier
1951, 1965-098G
Orbit
LEO
Country
Flag of USUS
Related business
Manufacturer
Unknown
Mission
Spacecraft
Bus & Motor
Unknown
Mass
~1 kg wet, ~1 kg dry
Launch date (UTC)
1965-11-29 (61 years ago)
Launch vehicle
Unknown
Launch site
Air Force Western Test Range (AFWTR)
Object type
Payload
Rocket body
Debris
Shape & HBR
Unknown
Radar Cross Section
Medium (>0.1 m² and <1 m²)

Expand to show TLE details & history
Last TLE update: 1 week ago

TLE from 1 week ago
0 THOR AGENA B DEB
1 01951U 65098G   26154.44815548  .00002424  00000-0  44565-3 0  9990
2 01951  79.6119 319.7606 0763829 291.2220  60.9007 13.58159980805763
Epoch: 2026-06-03T10:45Z
TLE epoch observation values (Epoch: 2026-06-03T10:45:20.633Z)
Latitude
Longitude
-93.482°
Altitude
804.379 km
Speed
7.571 km/s
True Right ascension
21h 19m 02s
True Declination
0° 00' 00"
Sunlit
Object was in daylight at epoch
Visualization orbit readout
Latitude
Unknown
Longitude
Unknown
Altitude
Unknown
Speed
Unknown
Apparent Right ascension
Unknown
Apparent Declination
Unknown
Sunlit
N/A
Visualization observer readout
Local Sidereal Time
12:36:40
Azimuth
Unknown
Elevation
Unknown
Doppler factor
Unknown
Orbital elements
Apogee altitude
1,606.285 km
Perigee altitude
473.095 km
Semi-major axis
7,417.827 km
Eccentricity
0.07638
Inclination
79.6119°
RAAN
319.7606°
Arg. of periapsis
291.222°
True anomaly
68.89423°
Mean anomaly
60.9007°
Eccentric anomaly
64.86264°
Mean motion
3.39725 °/min
Orbital period
105.97 mins
BSTAR
0.00044565
Loading maneuver chart data...
Computing Atmospheric mass density...
Loading historical data...
Loading historical data...
Loading historical data...
Loading historical data...
Loading historical data...
Loading historical data...
Loading historical data...

Documentation

Showing up to 5 results
|